Regional Weather Roundup
Issued by NWS Upton, NY

Home | Current Version | Previous Version | Text Only | Print | Product List | Glossary On
Versions: 1 2 3 4 5 6 7 8 9 10 11 12 13 14 15 16 17 18 19 20 21 22 23 24 25 26
000
ASUS41 KOKX 120108
RWROKX

REGIONAL WEATHER ROUNDUP
NATIONAL WEATHER SERVICE NEW YORK NY
800 PM EST MON DEC 11 2017

NOTE: "FAIR" INDICATES FEW OR NO CLOUDS BELOW 12,000 FEET WITH NO
SIGNIFICANT WEATHER AND/OR OBSTRUCTIONS TO VISIBILITY.

NYZ071-072-176-178-NJZ106-104-120200-
NEW YORK CITY METRO AREA

CITY           SKY/WX    TMP DP  RH WIND       PRES   REMARKS
Central Park   MOCLDY    38  21  50 W6        30.03S WCI  33
Bronx Bot Gard   N/A     37  21  52 CALM      30.02S
Bronx Lehman C   N/A     39  23  52 W5          N/A
LaGuardia APRT MOCLDY    39  22  50 SW7       30.02R WCI  34
Queens College   N/A     37  23  56 W6          N/A  WCI  33
Kennedy INTL   MOCLDY    37  23  56 W8        30.03S WCI  31
Breezy Point     N/A     37 N/A N/A SW3         N/A
Brooklyn Coll    N/A     39  23  52 W3          N/A
Staten Island    N/A     34  25  69 SE2         N/A
Newark/Liberty MOCLDY    38  21  50 CALM      30.01S
Teterboro      MOCLDY    37  22  54 CALM      30.01R
$$

NYZ177-179-078>081-120200-
LONG ISLAND NEW YORK

CITY           SKY/WX    TMP DP  RH WIND       PRES   REMARKS
Jones Beach      N/A     39 N/A N/A W7          N/A  WCI  34
Wantagh          N/A     36  27  69 NW1         N/A
Matinecock PT    N/A     36 N/A N/A S3          N/A
Farmingdale    MOCLDY    32  23  69 CALM      30.01F
MacArthur/ISP  CLOUDY    32  23  69 CALM      30.00F
Shirley        CLEAR     29  24  82 CALM      30.02F
Mt Sinai Harb    N/A    N/A N/A N/A S1          N/A
Westhampton    CLEAR     25  20  81 N3        30.03F
East Hampton   FAIR      25  22  86 CALM      30.02S
Southold         N/A     32  27  80 SW3         N/A
Montauk          N/A     38  26  62 SW3       30.03S
$$

NYZ052-065-067-120200-
HUDSON VALLEY

CITY           SKY/WX    TMP DP  RH WIND       PRES   REMARKS
White Plains   MOCLDY    33  21  61 CALM      30.00R
Larchmont Harb   N/A     39 N/A N/A S9          N/A  WCI  33
Croton On Huds   N/A     36 N/A N/A MISG        N/A
Somers           N/A     32  23  69 S2          N/A
Brewster         N/A     30  21  69 CALM        N/A
Newburgh       MOCLDY    32  23  69 CALM      29.99S
Montgomery     CLOUDY    31  25  78 CALM      29.98R
Otisville        N/A     32  25  74 S1          N/A
Warwick          N/A     32  25  74 SE2         N/A
Suffern          N/A     32  23  69 CALM        N/A
Poughkeepsie   CLOUDY    32  22  66 SE3       29.99S
Albany         CLOUDY    30  18  60 CALM      29.99S
$$

NJZ001-105-106-008-010-013-015-019>022-104-120200-
NEW JERSEY

CITY           SKY/WX    TMP DP  RH WIND       PRES   REMARKS
Newark/Liberty MOCLDY    38  21  50 CALM      30.01S
Teterboro      MOCLDY    37  22  54 CALM      30.01R
Caldwell       CLOUDY    35  22  58 CALM      30.00F
Somerville     CLOUDY    31  26  82 CALM      29.99S
Linden         MOCLDY    36  21  55 CALM      30.01S
Perth Amboy      N/A     36 N/A N/A CALM        N/A
Sussex         CLOUDY    32  24  72 CALM      29.98S
Andover        NOT AVBL
Trenton        CLOUDY    34  25  69 CALM      30.00R
Millville      CLEAR     29  26  89 CALM      30.00F
Atlantic City  CLEAR     29  24  82 CALM      30.01F
Wrightstown    CLOUDY    28  24  86 NE3       29.96F
Toms River     PTCLDY    26  24  92 CALM      30.01F
Belmar         MOCLDY    33  23  66 CALM      30.01F
$$

PAZ047>061-062-071-120200-
EASTERN PENNSYLVANIA

CITY           SKY/WX    TMP DP  RH WIND       PRES   REMARKS
Philadelphia   CLOUDY    35  24  64 SE6       30.00S WCI  30
Allentown      CLOUDY    37  22  54 E5        29.97F WCI  33
Scranton       CLOUDY    33  20  58 VRB5      29.91F WCI  29
$$

CTZ002-004>006-009-010-012-RIZ004-006-007-MAZ004-011-015-120200-
SOUTHERN NEW ENGLAND
 IN CT

CITY           SKY/WX    TMP DP  RH WIND       PRES   REMARKS
Bradley INTL   CLOUDY    31  22  69 CALM      30.01R
Hartford       CLOUDY    33  24  69 SE3       30.01S
Danbury        CLOUDY    31  24  75 CALM      30.01R
Wtrbury/Oxford CLOUDY    30  21  69 CALM      29.99R
Norwalk Harbor   N/A     36 N/A N/A N5          N/A  WCI  32
Bridgeport     PTCLDY    36  23  59 CALM      30.02S
Meriden        CLOUDY    30  23  75 CALM      30.01S
New Haven      CLOUDY    34  24  67 CALM      30.01F
Chester        FAIR      32  19  59 CALM      30.00S
Groton         PTCLDY    32  25  75 CALM      30.02S
Wilimantic     CLOUDY    30  24  78 CALM      30.02S

 IN RI

CITY           SKY/WX    TMP DP  RH WIND       PRES   REMARKS
Providence     CLOUDY    31  25  78 SW3       30.03R
Block Island   CLOUDY    37  24  59 N3        30.03R
Westerly       PTCLDY    31  27  85 CALM      30.03R
 IN MA

CITY           SKY/WX    TMP DP  RH WIND       PRES   REMARKS
Boston         CLOUDY    36  16  44 W5        30.02S WCI  32
Worcester      CLOUDY    29  16  58 VRB3      29.97S
Westfield      CLOUDY    28  22  78 CALM      30.00R
Provincetown   CLEAR     31  21  66 CALM      30.03S
Nantucket      CLEAR     27  24  89 N6        30.03S WCI  20
$$

ANZ330-335-338-340-345-350-353-355-120200-
COASTAL MARINE OBSERVATIONS


STATION/POSITION TIME  SKY/WX   TEMP    WIND        PRES    VSBY  WAVE
                                AIR SEA DIR/SP/G                  HT/PER
                 (UTC)          (F)     (DEG/KT/KT) (MB)    (MI)  (FT/S)
NY HARB ENTRANCE 2350            41 53  250/  6/  8 1016.4          2/ 9
20 S FIRE ISLAND 2350            42 53  270/  4/  8 1017.2          3/10
GREAT SOUTH BAY  0015            39 45  100/  4/  6   N/A
HUDSON CANYON    2350            43 56  270/  6/ 10 1017.1          4/ 9
KINGS POINT      0048            39 45  260/  6/  8 1017.3
EXECUTION ROCKS  0030            40     150/  8/ 10   N/A
WESTERN LI SOUND 2349            40     180/  6/  8   N/A           0
CENTRAL LI SOUND 0015            40     330/  4/  6   N/A           1
ROBBINS REEF     0048            39     250/  6/  8 1017.1
$$


>>>>>>>>>>>>>>>>>>>>>>>>>>>> KEY <<<<<<<<<<<<<<<<<<<<<<<<<<<
>                                                          <
>     SKY/WX - Sky Condition/Present Weather               <
>     TMP    - Temperature in Fahrenheit                   <
>     DP     - Dew Point in Fahrenheit                     <
>     RH     - Relative Humidity in Percent                <
>     WIND   - Direction (from) and Speed in MPH           <
>     PRES   - Mean Sea Level Pressure (inches of Hg)      <
>     WCI    - Wind Chill Index                            <
>     VSB    - VISIBILITY IN MILES                         <
>     HX     - HEAT INDEX                                  <
>     TC     - TEMPERATURE IN CELSIUS                      <
>     VRB    - VARIABLE WIND DIRECTION                     <
>                                                          <
>>>>>>>>>>>>>>>>>>>>>>>>>>>> KEY <<<<<<<<<<<<<<<<<<<<<<<<<<<




USA.gov is the U.S. government's official web portal to all federal, state and local government web resources and services.